LOG915M EGPD-EPBY

Flight info

Callsign LOG915M
Flight time 2h 1m
Altitude 35000
Route ADN P18 ALASO DCT GOLUM L975 BAVTA L983 MATEK DCT AMROR DCT ELPOL DCT UNDUK
Aircraft E145/M-SDFGIRW/S

Departure

Time 2026-05-08 02:41
Airport Aberdeen International Airport (EGPD)

Arrival

Time 2026-05-08 04:43
Airport Ignacy Jan Paderewski Bydgoszcz Airport (EPBY)
Time Latitude Longitude Altitude Speed Heading
2026-05-08 02:28 57.20163 -2.20329 219 ft 0 kts 248°
2026-05-08 02:30 57.20164 -2.20322 219 ft 0 kts 248°
2026-05-08 02:30 57.20167 -2.20309 218 ft 1 kts 248°
2026-05-08 02:30 57.20171 -2.20289 217 ft 1 kts 248°
2026-05-08 02:30 57.20177 -2.20262 216 ft 2 kts 248°
2026-05-08 02:31 57.20185 -2.20228 215 ft 3 kts 248°
2026-05-08 02:31 57.20193 -2.20193 213 ft 0 kts 248°
2026-05-08 02:37 57.20192 -2.20205 214 ft 4 kts 281°
2026-05-08 02:38 57.20261 -2.20269 215 ft 12 kts 338°
2026-05-08 02:38 57.20344 -2.20330 216 ft 12 kts 338°
2026-05-08 02:38 57.20427 -2.20391 217 ft 13 kts 347°
2026-05-08 02:38 57.20521 -2.20352 214 ft 15 kts 340°
2026-05-08 02:39 57.20616 -2.20421 216 ft 14 kts 338°
2026-05-08 02:39 57.20707 -2.20490 218 ft 13 kts 337°
2026-05-08 02:39 57.20788 -2.20551 220 ft 12 kts 339°
2026-05-08 02:39 57.20872 -2.20610 222 ft 13 kts 339°
2026-05-08 02:40 57.20960 -2.20671 224 ft 13 kts 354°
2026-05-08 02:40 57.21025 -2.20513 213 ft 21 kts 69°
2026-05-08 02:40 57.21026 -2.20398 208 ft 0 kts 153°
2026-05-08 02:40 57.20954 -2.20340 207 ft 42 kts 159°
2026-05-08 02:41 57.20365 -2.19906 206 ft 135 kts 159°
2026-05-08 02:41 57.19480 -2.19174 985 ft 146 kts 157°
2026-05-08 02:41 57.18514 -2.18334 1741 ft 162 kts 157°
2026-05-08 02:41 57.17509 -2.17659 2721 ft 161 kts 174°
2026-05-08 02:42 57.16332 -2.17913 3385 ft 186 kts 205°
2026-05-08 02:42 57.15386 -2.19672 4081 ft 211 kts 247°
2026-05-08 02:42 57.15442 -2.22266 5190 ft 217 kts 292°
2026-05-08 02:42 57.16463 -2.24378 6014 ft 239 kts 324°
2026-05-08 02:43 57.17916 -2.26068 6759 ft 255 kts 319°
2026-05-08 02:43 57.19293 -2.28021 7888 ft 254 kts 321°
2026-05-08 02:43 57.20707 -2.29991 8789 ft 261 kts 318°
2026-05-08 02:43 57.22112 -2.32165 9649 ft 267 kts 312°
2026-05-08 02:44 57.22985 -2.35062 10547 ft 264 kts 281°
2026-05-08 02:44 57.22865 -2.38430 11168 ft 276 kts 251°
2026-05-08 02:44 57.21717 -2.41344 11679 ft 295 kts 220°
2026-05-08 02:44 57.19795 -2.42862 12222 ft 315 kts 192°
2026-05-08 02:45 57.17583 -2.42408 12927 ft 329 kts 162°
2026-05-08 02:45 57.15687 -2.40094 13696 ft 337 kts 141°
2026-05-08 02:45 57.13773 -2.37660 14402 ft 337 kts 152°
2026-05-08 02:45 57.11796 -2.35321 15067 ft 342 kts 150°
2026-05-08 02:46 57.09806 -2.32895 15718 ft 346 kts 150°
2026-05-08 02:46 57.07798 -2.30423 16355 ft 349 kts 150°
2026-05-08 02:46 57.05794 -2.27948 16960 ft 353 kts 150°
2026-05-08 02:46 57.03751 -2.25422 17548 ft 356 kts 150°
2026-05-08 02:47 57.01677 -2.22861 18121 ft 359 kts 150°
2026-05-08 02:47 56.99626 -2.20329 18847 ft 356 kts 151°
2026-05-08 02:47 56.97582 -2.17811 19567 ft 353 kts 151°
2026-05-08 02:47 56.95575 -2.15342 20195 ft 352 kts 151°
2026-05-08 02:48 56.93540 -2.12855 20797 ft 351 kts 153°
2026-05-08 02:48 56.91320 -2.11293 21366 ft 339 kts 173°
2026-05-08 02:48 56.89037 -2.10320 21978 ft 337 kts 173°
2026-05-08 02:48 56.86761 -2.09404 22565 ft 335 kts 174°
2026-05-08 02:49 56.84514 -2.08521 23127 ft 334 kts 174°
2026-05-08 02:49 56.82374 -2.07687 23651 ft 332 kts 174°
2026-05-08 02:49 56.80135 -2.06822 24188 ft 331 kts 175°
2026-05-08 02:49 56.77899 -2.05961 24711 ft 330 kts 175°
2026-05-08 02:50 56.75656 -2.05098 25223 ft 328 kts 175°
2026-05-08 02:50 56.73436 -2.04246 25717 ft 327 kts 175°
2026-05-08 02:50 56.71225 -2.03397 26198 ft 326 kts 175°
2026-05-08 02:50 56.69008 -2.02548 26668 ft 325 kts 175°
2026-05-08 02:51 56.66813 -2.01708 27123 ft 323 kts 175°
2026-05-08 02:51 56.64650 -2.00881 27561 ft 322 kts 176°
2026-05-08 02:51 56.62447 -2.00040 27995 ft 321 kts 176°
2026-05-08 02:51 56.60295 -1.99219 28408 ft 320 kts 176°
2026-05-08 02:52 56.58138 -1.98397 28813 ft 319 kts 176°
2026-05-08 02:52 56.55959 -1.97567 29211 ft 317 kts 176°
2026-05-08 02:52 56.53826 -1.96756 29591 ft 316 kts 176°
2026-05-08 02:52 56.51684 -1.95943 29962 ft 315 kts 176°
2026-05-08 02:53 56.49551 -1.95133 30323 ft 314 kts 176°
2026-05-08 02:53 56.47407 -1.94321 30676 ft 313 kts 176°
2026-05-08 02:53 56.45309 -1.93528 31013 ft 312 kts 177°
2026-05-08 02:53 56.43197 -1.92729 31343 ft 311 kts 177°
2026-05-08 02:54 56.41090 -1.91934 31664 ft 310 kts 177°
2026-05-08 02:54 56.38981 -1.91138 31977 ft 309 kts 177°
2026-05-08 02:54 56.36876 -1.90346 32281 ft 308 kts 177°
2026-05-08 02:54 56.34793 -1.89562 32573 ft 307 kts 177°
2026-05-08 02:55 56.32725 -1.88785 32856 ft 306 kts 177°
2026-05-08 02:55 56.28587 -1.87233 33399 ft 305 kts 178°
2026-05-08 02:55 56.26517 -1.86457 33659 ft 304 kts 178°
2026-05-08 02:56 56.24441 -1.85680 33913 ft 303 kts 178°
2026-05-08 02:56 56.22404 -1.84919 34153 ft 302 kts 178°
2026-05-08 02:56 56.20349 -1.84153 34377 ft 302 kts 178°
2026-05-08 02:56 56.18301 -1.83390 34589 ft 302 kts 178°
2026-05-08 02:57 56.16238 -1.82621 34799 ft 302 kts 178°
2026-05-08 02:57 56.14207 -1.81867 34930 ft 304 kts 178°
2026-05-08 02:57 56.12111 -1.81092 34942 ft 311 kts 178°
2026-05-08 02:58 56.07807 -1.79496 34945 ft 324 kts 177°
2026-05-08 02:58 56.03350 -1.77802 35009 ft 330 kts 184°
2026-05-08 02:59 55.98799 -1.76158 35011 ft 337 kts 183°
2026-05-08 02:59 55.94183 -1.74462 35011 ft 343 kts 183°
2026-05-08 03:00 55.89501 -1.72741 35012 ft 348 kts 182°
2026-05-08 03:00 55.84500 -1.70908 35019 ft 354 kts 182°
2026-05-08 03:01 55.79579 -1.69108 35018 ft 359 kts 182°
2026-05-08 03:01 55.74666 -1.67316 35018 ft 364 kts 182°
2026-05-08 03:02 55.69693 -1.65507 35017 ft 368 kts 182°
2026-05-08 03:02 55.64677 -1.63687 35017 ft 372 kts 182°
2026-05-08 03:03 55.59607 -1.61851 35016 ft 376 kts 181°
2026-05-08 03:03 55.54464 -1.59995 35016 ft 379 kts 181°
2026-05-08 03:04 55.49307 -1.58025 35000 ft 393 kts 174°
2026-05-08 03:04 55.46880 -1.55517 35023 ft 429 kts 151°
2026-05-08 03:04 55.44951 -1.51281 35024 ft 461 kts 128°
2026-05-08 03:04 55.43879 -1.45840 35026 ft 484 kts 105°
2026-05-08 03:05 55.43856 -1.39878 35027 ft 497 kts 83°
2026-05-08 03:05 55.44857 -1.34069 35044 ft 499 kts 70°
2026-05-08 03:05 55.45541 -1.28083 35020 ft 494 kts 91°
2026-05-08 03:06 55.45810 -1.16065 35009 ft 496 kts 92°
2026-05-08 03:06 55.46106 -1.03867 35009 ft 498 kts 92°
2026-05-08 03:07 55.46392 -0.91714 35010 ft 499 kts 92°
2026-05-08 03:07 55.46668 -0.79471 35012 ft 501 kts 91°
2026-05-08 03:08 55.46932 -0.67212 35013 ft 503 kts 91°
2026-05-08 03:08 55.47185 -0.54902 35015 ft 505 kts 91°
2026-05-08 03:09 55.47425 -0.42621 35017 ft 506 kts 91°
2026-05-08 03:09 55.47657 -0.30180 35006 ft 508 kts 92°
2026-05-08 03:10 55.47873 -0.17739 35006 ft 508 kts 92°
2026-05-08 03:10 55.48078 -0.05315 35008 ft 509 kts 92°
2026-05-08 03:11 55.48270 0.07098 35010 ft 509 kts 92°
2026-05-08 03:11 55.48451 0.19590 35011 ft 510 kts 92°
2026-05-08 03:12 55.48619 0.32080 35013 ft 511 kts 92°
2026-05-08 03:12 55.48774 0.44576 35015 ft 512 kts 92°
2026-05-08 03:13 55.48917 0.57096 35016 ft 513 kts 92°
2026-05-08 03:13 55.49051 0.69647 35067 ft 512 kts 94°
2026-05-08 03:14 55.49165 0.82188 35071 ft 512 kts 94°
2026-05-08 03:14 55.49269 0.94684 35073 ft 512 kts 94°
2026-05-08 03:15 55.49361 1.07256 35075 ft 513 kts 94°
2026-05-08 03:15 55.49440 1.19830 35076 ft 513 kts 94°
2026-05-08 03:16 55.49506 1.32397 35078 ft 514 kts 94°
2026-05-08 03:16 55.49559 1.44904 35080 ft 514 kts 94°
2026-05-08 03:17 55.49600 1.57499 35082 ft 515 kts 94°
2026-05-08 03:17 55.49629 1.70109 35071 ft 516 kts 95°
2026-05-08 03:18 55.49643 1.82757 35071 ft 515 kts 95°
2026-05-08 03:18 55.49644 1.95313 35073 ft 515 kts 95°
2026-05-08 03:19 55.49633 2.07954 35074 ft 515 kts 95°
2026-05-08 03:19 55.49609 2.20591 35076 ft 516 kts 95°
2026-05-08 03:20 55.49572 2.33211 35078 ft 516 kts 95°
2026-05-08 03:20 55.49522 2.45774 35080 ft 516 kts 95°
2026-05-08 03:21 55.49458 2.58457 35082 ft 517 kts 95°
2026-05-08 03:21 55.49383 2.71099 35070 ft 517 kts 95°
2026-05-08 03:22 55.49293 2.83744 35071 ft 517 kts 95°
2026-05-08 03:22 55.49191 2.96355 35073 ft 517 kts 95°
2026-05-08 03:23 55.49075 3.09023 35075 ft 516 kts 95°
2026-05-08 03:23 55.48947 3.21615 35076 ft 517 kts 95°
2026-05-08 03:24 55.48806 3.34284 35078 ft 517 kts 95°
2026-05-08 03:24 55.48652 3.46892 35080 ft 517 kts 95°
2026-05-08 03:25 55.48484 3.59594 35082 ft 518 kts 95°
2026-05-08 03:25 55.48304 3.72241 35070 ft 518 kts 96°
2026-05-08 03:26 55.48109 3.84911 35071 ft 517 kts 96°
2026-05-08 03:26 55.47904 3.97494 35073 ft 517 kts 96°
2026-05-08 03:27 55.47684 4.10116 35075 ft 517 kts 96°
2026-05-08 03:27 55.47451 4.22806 35076 ft 517 kts 96°
2026-05-08 03:28 55.47206 4.35408 35078 ft 517 kts 96°
2026-05-08 03:28 55.46945 4.48114 35105 ft 517 kts 96°
2026-05-08 03:29 55.46675 4.60718 35109 ft 518 kts 96°
2026-05-08 03:29 55.46390 4.73379 35097 ft 518 kts 97°
2026-05-08 03:30 55.45938 4.92329 35099 ft 518 kts 97°
2026-05-08 03:31 55.45289 5.17636 35103 ft 518 kts 97°
2026-05-08 03:32 55.45492 5.36654 35116 ft 523 kts 85°
2026-05-08 03:32 55.46322 5.49546 35107 ft 523 kts 86°
2026-05-08 03:33 55.47102 5.62319 35109 ft 524 kts 86°
2026-05-08 03:33 55.47872 5.75180 35097 ft 524 kts 87°
2026-05-08 03:34 55.48621 5.87918 35099 ft 524 kts 87°
2026-05-08 03:34 55.49357 6.00657 35100 ft 523 kts 87°
2026-05-08 03:35 55.50077 6.13358 35102 ft 523 kts 87°
2026-05-08 03:35 55.50788 6.26121 35104 ft 524 kts 87°
2026-05-08 03:36 55.51485 6.38887 35106 ft 524 kts 87°
2026-05-08 03:36 55.52170 6.51678 35108 ft 524 kts 87°
2026-05-08 03:37 55.52841 6.64466 35110 ft 525 kts 87°
2026-05-08 03:37 55.53504 6.77349 35098 ft 525 kts 88°
2026-05-08 03:38 55.54147 6.90132 35099 ft 525 kts 88°
2026-05-08 03:38 55.54781 7.02997 35101 ft 524 kts 88°
2026-05-08 03:39 55.55397 7.15772 35103 ft 524 kts 88°
2026-05-08 03:39 55.56004 7.28621 35105 ft 525 kts 88°
2026-05-08 03:40 55.56596 7.41473 35107 ft 525 kts 88°
2026-05-08 03:40 55.57174 7.54304 35109 ft 525 kts 88°
2026-05-08 03:41 55.57744 7.67215 35104 ft 526 kts 89°
2026-05-08 03:41 55.58293 7.80027 35098 ft 526 kts 89°
2026-05-08 03:42 55.58831 7.92878 35100 ft 525 kts 89°
2026-05-08 03:42 55.59354 8.05693 35102 ft 525 kts 89°
2026-05-08 03:43 55.59863 8.18542 35104 ft 525 kts 89°
2026-05-08 03:43 55.59989 8.31441 35183 ft 517 kts 101°
2026-05-08 03:44 55.58519 8.43801 35186 ft 513 kts 106°
2026-05-08 03:44 55.56924 8.56034 35187 ft 511 kts 106°
2026-05-08 03:45 55.55335 8.68130 35181 ft 510 kts 107°
2026-05-08 03:45 55.53749 8.80071 35179 ft 508 kts 107°
2026-05-08 03:46 55.52134 8.92156 35180 ft 506 kts 107°
2026-05-08 03:46 55.50513 9.04176 35182 ft 505 kts 107°
2026-05-08 03:47 55.48877 9.16210 35183 ft 504 kts 107°
2026-05-08 03:47 55.47229 9.28240 35184 ft 504 kts 107°
2026-05-08 03:48 55.45578 9.40175 35186 ft 503 kts 107°
2026-05-08 03:48 55.43919 9.52071 35187 ft 503 kts 107°
2026-05-08 03:49 55.42241 9.64016 35188 ft 503 kts 107°
2026-05-08 03:49 55.40549 9.75968 35179 ft 502 kts 108°
2026-05-08 03:50 55.38853 9.87844 35180 ft 501 kts 108°
2026-05-08 03:50 55.37157 9.99641 35181 ft 501 kts 108°
2026-05-08 03:51 55.35444 10.11496 35182 ft 500 kts 108°
2026-05-08 03:51 55.33730 10.23269 35184 ft 500 kts 108°
2026-05-08 03:52 55.31988 10.35136 35185 ft 500 kts 108°
2026-05-08 03:52 55.30242 10.46953 35186 ft 500 kts 108°
2026-05-08 03:53 55.28487 10.58741 35187 ft 500 kts 108°
2026-05-08 03:53 55.26702 10.70632 35178 ft 500 kts 109°
2026-05-08 03:54 55.24891 10.82601 35179 ft 500 kts 109°
2026-05-08 03:54 55.23108 10.94297 35180 ft 499 kts 109°
2026-05-08 03:55 55.21303 11.06053 35181 ft 499 kts 109°
2026-05-08 03:55 55.19504 11.17693 35183 ft 499 kts 109°
2026-05-08 03:56 55.17679 11.29416 35184 ft 499 kts 109°
2026-05-08 03:56 55.15847 11.41097 35185 ft 499 kts 109°
2026-05-08 03:57 55.14005 11.52765 35187 ft 499 kts 109°
2026-05-08 03:57 55.12153 11.64411 35188 ft 500 kts 109°
2026-05-08 03:58 55.10265 11.76197 35178 ft 499 kts 109°
2026-05-08 03:58 55.08383 11.87771 35220 ft 496 kts 108°
2026-05-08 03:59 55.06522 11.99283 35207 ft 492 kts 107°
2026-05-08 03:59 55.04643 12.10770 35208 ft 489 kts 108°
2026-05-08 04:00 55.02781 12.22076 35209 ft 486 kts 108°
2026-05-08 04:00 55.00912 12.33343 35210 ft 484 kts 108°
2026-05-08 04:00 55.00331 12.39115 35192 ft 485 kts 91°
2026-05-08 04:01 55.00451 12.44915 35219 ft 484 kts 86°
2026-05-08 04:01 55.00896 12.56618 35212 ft 483 kts 85°
2026-05-08 04:02 55.01348 12.68287 35207 ft 482 kts 86°
2026-05-08 04:02 55.01602 12.79909 35199 ft 481 kts 93°
2026-05-08 04:03 55.01114 12.91465 35208 ft 479 kts 95°
2026-05-08 04:03 55.00301 13.08745 35209 ft 478 kts 95°
2026-05-08 04:04 54.99741 13.20316 35210 ft 478 kts 95°
2026-05-08 04:04 54.99175 13.31824 35210 ft 477 kts 95°
2026-05-08 04:05 54.98597 13.43320 35211 ft 477 kts 95°
2026-05-08 04:05 54.98008 13.54819 35212 ft 477 kts 95°
2026-05-08 04:06 54.97410 13.66296 35211 ft 477 kts 96°
2026-05-08 04:06 54.96801 13.77746 35207 ft 477 kts 96°
2026-05-08 04:07 54.96184 13.89158 35208 ft 476 kts 96°
2026-05-08 04:07 54.95552 14.00649 35209 ft 476 kts 96°
2026-05-08 04:08 54.94911 14.12092 35209 ft 476 kts 96°
2026-05-08 04:08 54.94259 14.23541 35210 ft 476 kts 96°
2026-05-08 04:09 54.93601 14.34911 35211 ft 476 kts 96°
2026-05-08 04:09 54.92926 14.46385 35211 ft 476 kts 96°
2026-05-08 04:10 54.92241 14.57828 35212 ft 476 kts 96°
2026-05-08 04:10 54.91544 14.69317 35207 ft 476 kts 97°
2026-05-08 04:11 54.90840 14.80700 35207 ft 476 kts 97°
2026-05-08 04:11 54.90128 14.92063 35208 ft 476 kts 97°
2026-05-08 04:12 54.89388 15.03606 35208 ft 475 kts 98°
2026-05-08 04:12 54.88553 15.09061 35203 ft 471 kts 115°
2026-05-08 04:12 54.86808 15.13797 35222 ft 462 kts 134°
2026-05-08 04:13 54.82529 15.22066 35211 ft 462 kts 136°
2026-05-08 04:13 54.78217 15.30245 35210 ft 462 kts 134°
2026-05-08 04:14 54.73873 15.38493 35211 ft 463 kts 135°
2026-05-08 04:14 54.69529 15.46693 35211 ft 463 kts 135°
2026-05-08 04:15 54.65194 15.54848 35212 ft 463 kts 135°
2026-05-08 04:15 54.60848 15.63054 35205 ft 465 kts 131°
2026-05-08 04:16 54.57012 15.72043 35208 ft 465 kts 128°
2026-05-08 04:16 54.53229 15.80988 35208 ft 465 kts 128°
2026-05-08 04:17 54.49400 15.90036 35208 ft 466 kts 128°
2026-05-08 04:17 54.45609 15.98960 35209 ft 466 kts 128°
2026-05-08 04:18 54.42239 16.06868 35209 ft 466 kts 128°
2026-05-08 04:18 54.38418 16.15802 35210 ft 466 kts 128°
2026-05-08 04:19 54.34600 16.24699 35210 ft 466 kts 128°
2026-05-08 04:19 54.30740 16.33661 35211 ft 466 kts 128°
2026-05-08 04:20 54.26895 16.42555 35204 ft 467 kts 128°
2026-05-08 04:20 54.24959 16.47022 34782 ft 468 kts 128°
2026-05-08 04:20 54.23038 16.51448 34334 ft 463 kts 128°
2026-05-08 04:21 54.21149 16.55791 33889 ft 458 kts 128°
2026-05-08 04:21 54.19249 16.60155 33438 ft 453 kts 128°
2026-05-08 04:21 54.17378 16.64441 32992 ft 449 kts 128°
2026-05-08 04:21 54.15514 16.68706 32536 ft 445 kts 129°
2026-05-08 04:22 54.13678 16.72896 32084 ft 441 kts 129°
2026-05-08 04:22 54.11861 16.77038 31633 ft 437 kts 129°
2026-05-08 04:22 54.10048 16.81162 31181 ft 434 kts 129°
2026-05-08 04:22 54.08240 16.85271 30727 ft 431 kts 130°
2026-05-08 04:23 54.06451 16.89328 30276 ft 428 kts 130°
2026-05-08 04:23 54.04681 16.93335 29827 ft 425 kts 130°
2026-05-08 04:23 54.02918 16.97322 29378 ft 423 kts 130°
2026-05-08 04:23 54.01165 17.01278 28929 ft 420 kts 130°
2026-05-08 04:24 53.99408 17.05239 28481 ft 422 kts 130°
2026-05-08 04:24 53.97645 17.09204 28108 ft 424 kts 130°
2026-05-08 04:24 53.95839 17.13262 27732 ft 426 kts 130°
2026-05-08 04:24 53.94048 17.17277 27360 ft 427 kts 130°
2026-05-08 04:25 53.92274 17.21253 26993 ft 428 kts 130°
2026-05-08 04:25 53.90468 17.25289 26620 ft 429 kts 130°
2026-05-08 04:25 53.88660 17.29325 26249 ft 429 kts 130°
2026-05-08 04:25 53.86865 17.33324 25881 ft 429 kts 130°
2026-05-08 04:26 53.85040 17.37386 25508 ft 429 kts 130°
2026-05-08 04:26 53.83242 17.41380 25141 ft 429 kts 130°
2026-05-08 04:26 53.81431 17.45397 24772 ft 429 kts 130°
2026-05-08 04:26 53.79610 17.49427 24401 ft 429 kts 130°
2026-05-08 04:27 53.77826 17.53373 24037 ft 429 kts 130°
2026-05-08 04:27 53.75978 17.57451 23660 ft 428 kts 130°
2026-05-08 04:27 53.74178 17.61417 23293 ft 428 kts 130°
2026-05-08 04:27 53.72360 17.65418 22922 ft 427 kts 131°
2026-05-08 04:28 53.70561 17.69371 22548 ft 426 kts 131°
2026-05-08 04:28 53.68756 17.73329 22173 ft 426 kts 131°
2026-05-08 04:28 53.66941 17.77305 21796 ft 422 kts 131°
2026-05-08 04:28 53.65201 17.81102 21299 ft 399 kts 130°
2026-05-08 04:29 53.63564 17.84685 20778 ft 375 kts 130°
2026-05-08 04:29 53.62022 17.88051 20261 ft 356 kts 131°
2026-05-08 04:29 53.60548 17.91260 19745 ft 339 kts 131°
2026-05-08 04:29 53.58834 17.93710 19213 ft 316 kts 158°
2026-05-08 04:30 53.56791 17.94441 18723 ft 294 kts 184°
2026-05-08 04:30 53.54820 17.93944 18222 ft 279 kts 199°
2026-05-08 04:30 53.53045 17.92827 17722 ft 270 kts 206°
2026-05-08 04:30 53.51391 17.91518 17220 ft 263 kts 209°
2026-05-08 04:31 53.49800 17.90135 16717 ft 257 kts 210°
2026-05-08 04:31 53.48223 17.88704 16214 ft 259 kts 211°
2026-05-08 04:31 53.46636 17.87235 15717 ft 260 kts 211°
2026-05-08 04:31 53.45084 17.85786 15224 ft 259 kts 211°
2026-05-08 04:32 53.43510 17.84311 14723 ft 259 kts 211°
2026-05-08 04:32 53.41943 17.82841 14223 ft 258 kts 211°
2026-05-08 04:32 53.40372 17.81366 13721 ft 258 kts 211°
2026-05-08 04:32 53.38817 17.79907 13222 ft 257 kts 211°
2026-05-08 04:33 53.37260 17.78447 12709 ft 258 kts 211°
2026-05-08 04:33 53.35712 17.76997 11967 ft 261 kts 211°
2026-05-08 04:33 53.34125 17.75516 11214 ft 262 kts 211°
2026-05-08 04:33 53.32554 17.74049 10470 ft 263 kts 211°
2026-05-08 04:34 53.30975 17.72575 9724 ft 263 kts 211°
2026-05-08 04:34 53.29366 17.71071 8965 ft 264 kts 212°
2026-05-08 04:34 53.27793 17.69602 8225 ft 265 kts 212°
2026-05-08 04:34 53.26205 17.68122 7676 ft 257 kts 212°
2026-05-08 04:35 53.24659 17.66681 7297 ft 254 kts 212°
2026-05-08 04:35 53.23107 17.65235 6913 ft 251 kts 212°
2026-05-08 04:35 53.21592 17.63826 6537 ft 250 kts 212°
2026-05-08 04:35 53.20050 17.62392 6153 ft 249 kts 212°
2026-05-08 04:36 53.18563 17.61012 6010 ft 243 kts 212°
2026-05-08 04:36 53.17088 17.59644 5997 ft 238 kts 212°
2026-05-08 04:36 53.15640 17.58302 5996 ft 233 kts 212°
2026-05-08 04:36 53.14232 17.56997 5998 ft 233 kts 212°
2026-05-08 04:37 53.12776 17.55676 6000 ft 240 kts 207°
2026-05-08 04:37 53.11102 17.55369 5868 ft 255 kts 172°
2026-05-08 04:37 53.09531 17.56758 5492 ft 260 kts 135°
2026-05-08 04:37 53.08705 17.59411 5121 ft 259 kts 99°
2026-05-08 04:38 53.08619 17.62375 4770 ft 256 kts 95°
2026-05-08 04:38 53.08343 17.65244 4322 ft 250 kts 101°
2026-05-08 04:38 53.07950 17.68016 3837 ft 246 kts 103°
2026-05-08 04:38 53.07527 17.70667 3025 ft 225 kts 98°
2026-05-08 04:39 53.07603 17.73093 2294 ft 207 kts 80°
2026-05-08 04:39 53.07792 17.75434 2035 ft 193 kts 80°
2026-05-08 04:39 53.07969 17.77573 2018 ft 179 kts 80°
2026-05-08 04:39 53.08142 17.79622 2046 ft 178 kts 79°
2026-05-08 04:40 53.08311 17.81618 2018 ft 170 kts 79°
2026-05-08 04:40 53.08471 17.83507 1944 ft 163 kts 79°
2026-05-08 04:40 53.08625 17.85331 1743 ft 149 kts 79°
2026-05-08 04:40 53.08762 17.86954 1621 ft 136 kts 79°
2026-05-08 04:41 53.08891 17.88473 1404 ft 129 kts 79°
2026-05-08 04:41 53.09015 17.89923 1189 ft 128 kts 78°
2026-05-08 04:41 53.09143 17.91397 983 ft 127 kts 78°
2026-05-08 04:41 53.09273 17.92831 746 ft 127 kts 79°
2026-05-08 04:42 53.09385 17.94306 499 ft 128 kts 80°
2026-05-08 04:42 53.09517 17.95755 291 ft 123 kts 79°
2026-05-08 04:42 53.09624 17.97075 227 ft 105 kts 79°
2026-05-08 04:42 53.09715 17.98163 226 ft 86 kts 80°
2026-05-08 04:43 53.09752 17.98640 226 ft 17 kts 93°
2026-05-08 04:43 53.09654 17.98739 228 ft 18 kts 173°
2026-05-08 04:43 53.09529 17.98777 231 ft 17 kts 141°
2026-05-08 04:43 53.09519 17.98973 232 ft 20 kts 82°
2026-05-08 04:44 53.09539 17.99221 233 ft 21 kts 82°
2026-05-08 04:44 53.09560 17.99474 234 ft 22 kts 81°
2026-05-08 04:44 53.09584 17.99643 233 ft 9 kts 44°
2026-05-08 04:44 53.09646 17.99717 230 ft 4 kts 41°
2026-05-08 04:45 53.09647 17.99718 230 ft 0 kts 40°